SCP
0 0 0 0 0 0 0 0 0 0 0 0 0 0 0 0 0 0 0 0 0 0 0 0 0 0 0 0 0 0 0 0 0 0 0 0 0 0 0 -0 0 0 0 0 0 0 0 0 -0 0 0 -0 0 0
0 0 0 0 0 0 0 0 0 0 0 0 0 0 0 0 0 0 0 0 0 0 0 -0 0 0 0 0 0 0 0 0 0 0 0 0 0 0 0 0 0 0 0 0 0 0 0 0 0 0 0 0 0 0
0 0 0 0 0 0 0 0 0 0 0 0 0 0 0 0 0 0 0 0 0 0 0 0 -0 0 0 0 0 0 0 0 0 0 0 0 0 0 0 -0 0 -0 -0 0 0 0 0 0 0 0 0 0 0 0
0 0 0 0 0 0 0 0 0 0 0 0 0 0 0 0 0 0 0 0 0 0 0 0 0 0 0 0 0 0 0 0 0 -0 0 0 0 0 0 0 0 -0 0 0 0 0 -0 0 0 0 0 0 0 0
0 0 0 0 0 0 0 0 0 0 0 0 0 0 0 0 0 0 0 0 0 0 0 0 0 0 0 0 0 0 0 0 0 0 0 0 0 0 0 -0 0 0 0 0 0 0 0 0 0 0 0 0 0 0
0 0 0 0 0 0 0 0 0 0 0 0 0 0 0 0 0 0 0 0 0 0 0 0 0 0 0 0 0 0 0 0 0 0 0 0 0 0 0 0 0 0 0 0 0 0 0 0 0 0 0 0 0 0
0 0 0 0 0 0 0 0 0 0 0 0 0 0 0 0 0 0 0 0 0 0 0 0 0 0 0 0 0 0 0 0 0 0 0 -0 -0 0 0 0 0 0 0 0 0 0 0 0 0 0 0 0 0 0
0 0 0 0 0 0 0 0 0 0 0 0 0 0 0 0 0 0 0 0 0 0 0 0 0 0 0 0 0 0 0 0 0 0 0 -0 0 0 0 0 0 0 -0 0 0 0 0 0 0 0 0 0 -0 0
0 0 0 0 0 0 0 0 0 0 0 0 0 0 0 0 0 0 0 0 0 0 0 0 0 0 0 0 0 0 0 0 0 0 0 0 0 0 0 -0 -0 -0 0 0 0 0 0 0 0 -0 0 0 0 0
0 0 0 0 0 0 0 0 0 0 0 0 0 0 0 0 0 0 0 0 0 0 0 0 0 0 0 0 0 0 0 0 0 0 0 0 0 -0 -0 0 0 0 0 0 -0 0 0 0 0 0 0 0 0 0
0 0 0 0 0 0 0 0 0 0 0 0 0 0 0 0 0 0 0 0 0 0 0 0 0 0 0 0 0 0 0 0 0 0 0 0 0 0 0 -0 0 0 0 0 0 0 0 0 0 0 0 0 0 0
0 0 0 0 0 0 0 0 -0 0 0 0 0 0 0 0 0 0 0 0 0 0 0 -0 -0 0 0 0 0 0 -0 -0 -0 0 0 -0 0 0 -0 -0 -0 0 0 0 0 0 0 0 0 0 0 0 0 0
0 0 0 0 0 0 -0 -0 0 -0 0 0 0 0 0 0 0 0 0 0 0 -0 0 -0 0 0 0 0 -0 -0 -0 0 0 0 0 0 0 -0 -0 -0 0 0 0 0 0 0 0 0 0 -0 -0 -0 0 0
0 0 0 0 0 0 -0 -0 -0 0 0 0 0 0 0 0 0 0 0 0 -0 -0 0 -0 0 0 0 -0 0 -0 -0 -0 -0 0 -0 0 -0 0 0 0 -0 0 0 0 0 0 0 0 0 -0 -0 -0 0 0
0 0 0 0 0 -0 -0 -0 -0 0 0 0 0 0 0 0 0 -0 -0 0 0 0 0 0 0 0 0 0 0 -0 0 0 0 0 0 -0 -0 0 0 0 0 0 0 -0 -0 0 0 0 -0 -0 -0 -0 -0 0
0 0 0 0 -0 -0 -0 0 0 0 0 0 0 0 0 -0 0 0 0 0 0 0 0 0 0 0 0 0 0 -0 -0 0 0 0 0 -0 0 -0 0 0 0 -0 -0 -0 -0 -0 -0 0 0 -0 -0 -0 -0 -0
0 0 -0 -0 -0 -0 -0 0 0 0 0 0 0 0 0 0 -0 0 0 0 0 0 -0 0 0 0 0 0 0 0 0 0 0 0 0 0 0 -0 0 0 0 0 -0 0 -0 -0 -0 -0 0 -0 -0 -0 -0 -0
0 0 -0 -0 -0 0 0 0 0 0 0 0 0 0 -0 0 0 -0 0 0 0 0 0 0 0 0 0 0 0 0 -0 0 0 0 0 0 0 0 0 0 0 -0 -0 0 -0 -0 -0 -0 -0 -0 -0 -0 -0 -0
0 -0 -0 -0 0 0 0 0 0 0 0 0 0 0 0 0 0 0 0 -0 0 0 0 0 0 0 0 0 0 0 -0 0 0 0 0 0 0 0 0 0 0 0 0 0 0 -0 -0 -0 -0 -0 -0 -0 -0 -0
-0 -0 -0 0 0 0 0 0 0 0 0 0 0 0 0 0 0 0 0 0 0 0 0 0 0 0 0 0 0 0 0 0 0 0 0 0 0 0 0 0 0 0 0 0 -0 -0 0 0 0 0 -0 -0 -0 -0
0 0 0 0 0 0 0 0 0 0 0 0 0 0 0 0 0 0 0 0 0 0 0 0 0 0 0 0 0 0 0 0 0 0 0 0 0 0 0 0 0 0 0 0 0 0 -0 0 0 0 -0 -0 -0 -0
0 0 0 0 0 0 0 0 0 0 0 0 -0 -0 0 0 0 0 0 0 0 0 0 0 0 0 0 0 0 0 0 0 0 0 0 0 0 0 0 0 0 0 0 0 0 0 0 -0 0 0 0 -0 -0 -0
0 0 0 0 0 0 0 0 0 0 0 0 0 0 0 0 0 0 0 -0 0 0 0 0 0 0 0 0 0 0 0 0 0 0 0 0 0 0 0 0 0 0 0 0 0 0 0 0 0 0 0 0 -0 -0
0 0 0 0 0 0 0 0 0 0 0 0 0 0 0 0 0 0 0 0 0 0 0 0 0 0 0 0 0 0 0 0 0 0 0 0 0 0 0 0 0 0 0 0 0 0 0 0 0 0 0 0 0 0
0 0 0 0 0 0 0 0 0 0 0 0 0 0 0 0 0 0 0 0 0 0 0 0 0 0 0 0 0 0 0 0 0 0 0 0 0 0 0 0 0 0 0 0 0 0 0 0 0 0 0 0 0 0
0 0 -0 -0 0 0 0 0 0 0 0 0 0 0 0 0 0 0 0 0 0 0 0 0 0 0 0 0 0 0 0 0 0 0 0 0 0 0 0 0 0 0 0 0 0 0 0 0 0 0 0 0 0 0
0 0 0 0 0 0 0 0 0 0 0 0 0 0 0 0 0 0 0 0 0 0 0 0 0 0 0 0 0 0 0 0 0 0 0 0 0 0 0 0 0 -0 -0 -0 -0 0 0 0 0 0 0 0 -0 -0
0 0 0 0 0 0 0 0 0 0 0 0 0 0 0 0 0 0 0 0 0 0 0 0 0 0 0 0 0 0 0 0 0 0 0 0 0 0 0 0 0 -0 -0 0 -0 -0 -0 -0 0 0 0 0 -0 -0
0 0 0 0 0 0 0 0 0 0 0 0 0 0 0 0 0 0 0 0 0 0 0 0 0 0 0 0 0 0 0 0 0 0 0 0 0 0 0 0 0 0 0 -0 -0 -0 -0 -0 -0 -0 0 -0 -0 -0
0 0 0 0 0 0 0 0 0 0 0 0 0 0 0 0 0 0 0 0 0 0 0 0 0 0 0 0 0 0 0 0 0 0 0 0 0 0 0 0 0 0 0 0 0 0 0 0 0 -0 0 -0 -0 -0
0 0 0 0 0 0 0 0 0 0 0 0 0 0 0 0 0 0 0 0 0 0 0 0 0 0 0 0 0 0 0 0 0 0 0 0 0 0 0 0 0 0 0 0 0 0 0 0 0 0 0 0 0 -0
0 0 0 0 0 0 0 0 0 0 0 0 0 0 0 0 0 0 0 0 0 0 0 0 0 0 0 0 0 0 0 0 0 0 0 0 0 0 0 0 0 0 0 0 0 0 0 0 0 0 0 0 0 0
0 0 0 0 0 0 0 0 0 0 0 0 0 0 0 0 0 0 0 0 0 0 0 0 0 0 0 0 0 0 0 0 0 0 0 0 0 0 0 0 0 0 0 0 0 0 0 0 0 0 0 0 0 0
Wind_Speed_500mb
47 47 48 44 42 36 36 40 42 48 52 53 51 44 32 26 33 39 26 20 25 14 47 51 26 31 33 37 19 25 17 0 12 12 7 7 10 9 14 20 13 10 4 8 9 7 7 28 15 23 23 50 50 59
56 52 50 47 42 37 38 37 35 36 40 49 54 47 33 22 28 35 31 22 19 25 34 52 58 29 42 41 29 16 20 18 10 7 8 8 8 9 22 11 13 6 2 4 9 12 31 43 42 42 53 54 63 73
62 60 54 48 46 44 45 38 35 34 36 39 47 48 34 20 22 34 38 27 25 26 44 31 22 23 15 24 24 12 3 8 7 13 12 6 8 6 8 12 16 19 27 13 21 13 34 60 34 53 58 63 66 66
65 62 58 53 49 45 40 40 39 39 38 36 39 44 28 19 22 29 43 33 21 13 12 13 11 16 18 19 21 23 17 13 14 17 12 7 6 13 10 16 20 17 17 19 28 26 64 23 54 60 67 68 68 78
53 54 57 53 49 46 45 38 37 41 41 33 34 35 22 15 20 27 40 37 28 16 9 22 40 33 38 25 20 17 15 10 11 8 8 10 14 13 15 18 6 8 7 4 8 43 28 45 65 78 74 66 77 84
51 50 51 47 47 43 40 41 41 41 38 28 32 25 15 15 23 29 13 12 21 33 9 8 15 15 30 32 22 19 19 14 11 6 10 14 22 8 7 7 5 9 15 30 22 46 55 65 64 59 67 78 65 79
50 48 47 42 44 36 35 47 40 36 29 22 29 23 17 21 27 32 9 8 9 24 8 11 9 6 30 30 24 18 19 9 10 7 14 25 20 3 2 6 12 34 38 42 33 34 34 44 61 64 72 73 85 72
49 42 40 42 38 38 40 38 36 34 25 28 24 20 19 25 30 39 40 32 22 21 9 6 9 12 32 31 26 22 18 15 15 9 9 14 8 2 6 12 26 36 42 30 33 44 60 66 55 68 75 84 76 66
43 38 41 33 38 38 35 39 38 33 28 30 22 22 17 23 18 27 28 19 34 15 7 7 5 6 24 35 18 26 19 8 10 7 7 7 3 7 7 22 24 32 28 42 52 52 52 62 53 73 63 79 74 77
38 35 35 37 36 35 35 34 32 31 36 34 32 14 9 11 18 18 14 16 18 10 12 9 19 13 22 9 17 9 14 9 7 12 6 5 4 11 13 17 22 30 33 36 43 51 62 56 59 50 56 76 76 73
30 30 32 34 35 35 32 30 30 45 45 38 17 11 16 11 25 8 10 11 15 8 14 17 38 26 12 10 10 9 4 5 5 7 8 7 3 4 16 19 22 27 32 32 37 51 51 57 64 50 57 81 84 79
36 35 37 34 30 27 29 32 46 62 43 38 19 18 18 11 9 7 8 9 10 8 17 20 25 34 6 5 5 4 6 5 5 13 6 3 4 12 19 24 27 33 36 35 37 49 50 53 63 59 60 67 79 89
34 34 32 29 28 29 36 42 68 55 46 33 9 10 10 11 10 11 14 8 7 14 15 19 9 14 6 9 7 7 9 9 14 9 5 6 10 16 22 27 32 37 37 35 39 44 52 51 61 55 64 67 69 95
37 37 31 31 30 31 40 62 66 53 36 10 13 10 10 10 11 11 14 9 20 12 22 26 14 11 10 8 5 8 5 6 5 5 6 10 13 18 23 27 38 44 41 41 42 50 48 51 61 57 58 71 63 84
37 35 34 30 32 39 56 62 60 53 11 11 10 9 15 18 15 18 23 17 19 14 18 17 12 9 4 3 5 7 4 4 6 6 4 11 11 17 21 29 38 41 41 42 45 47 48 50 57 64 62 68 65 81
34 28 32 26 39 56 64 71 48 34 9 7 10 8 13 10 21 23 19 34 17 14 14 7 4 5 3 2 2 4 5 2 5 5 5 6 11 16 20 23 27 29 33 44 45 44 44 46 58 60 60 65 68 80
27 32 28 39 61 76 76 64 29 10 11 8 12 24 16 15 15 18 20 16 19 18 9 4 8 6 5 2 3 1 3 3 3 3 2 6 11 16 21 22 26 29 32 37 51 49 41 42 50 55 69 74 65 80
39 36 42 69 82 83 60 20 11 14 12 18 10 14 25 21 18 23 18 17 16 17 12 2 7 8 8 5 6 6 9 9 10 4 1 5 9 14 18 23 24 25 28 32 44 45 49 47 48 56 57 64 62 77
48 46 64 79 85 41 13 18 11 8 21 8 24 16 24 25 22 19 16 17 9 6 1 4 5 3 3 10 14 13 14 12 10 5 5 4 8 10 15 20 21 23 24 29 36 43 47 44 41 44 48 63 57 67
45 64 83 85 65 11 9 8 15 7 7 13 18 26 24 27 21 12 19 15 14 9 6 4 3 6 8 13 17 8 11 7 5 4 8 6 10 12 16 20 23 23 24 27 25 39 51 52 55 55 46 55 58 63
97 91 88 71 32 9 8 11 12 9 7 10 17 24 17 25 28 25 16 16 16 12 6 8 4 9 12 16 11 10 6 7 9 6 2 9 12 13 16 20 21 24 27 30 32 37 47 55 58 60 49 46 53 50
67 80 59 43 5 6 5 12 7 6 7 8 24 25 15 22 25 27 20 14 15 10 5 8 13 19 19 16 13 8 12 10 10 7 4 3 12 14 17 20 23 25 28 31 33 36 40 46 53 56 50 45 47 45
71 56 25 6 5 7 6 15 7 7 6 6 14 8 10 18 18 20 11 16 7 8 10 15 19 19 19 17 15 14 11 15 11 11 9 12 13 14 15 19 22 25 28 31 32 34 37 45 47 53 52 45 43 46
48 12 9 13 12 8 11 11 10 10 10 9 10 7 12 10 18 13 8 18 20 20 20 22 26 23 20 18 18 15 14 12 15 13 10 10 12 13 14 16 20 24 27 27 31 34 36 38 44 46 53 49 44 46
10 9 8 6 11 10 9 8 7 7 6 10 11 6 7 12 7 7 13 14 26 29 30 26 27 23 22 22 23 17 15 13 15 14 12 10 9 10 11 14 18 24 27 28 33 36 36 37 40 42 45 52 42 40
5 10 12 15 9 9 9 8 12 13 8 11 11 8 10 7 9 6 10 26 30 31 32 29 29 26 24 25 22 20 15 13 16 15 12 11 12 11 11 12 13 19 25 26 29 34 35 37 38 41 42 42 44 31
6 8 9 6 7 5 5 6 7 7 9 11 8 13 9 9 10 5 8 17 24 26 26 27 25 24 25 26 25 21 18 15 14 18 14 13 14 16 15 14 16 15 19 25 27 32 32 34 36 38 39 39 40 37
4 5 7 14 8 12 5 7 8 11 6 6 11 10 6 0 5 5 7 8 12 26 26 25 21 21 28 25 22 21 19 17 20 19 18 16 16 16 15 13 16 28 22 25 30 31 30 30 33 34 36 35 36 39
6 6 7 10 9 10 8 5 4 4 3 5 7 5 5 6 5 10 12 17 20 26 28 27 24 23 23 23 21 19 16 16 16 17 16 16 11 11 12 12 14 15 17 20 28 34 31 35 32 33 33 31 30 28
8 11 6 8 5 6 2 2 6 8 11 16 21 23 24 19 13 9 15 18 21 23 25 28 25 24 25 25 25 21 16 13 12 11 16 12 9 7 9 11 13 14 16 18 18 21 26 24 26 27 32 32 36 34
7 10 5 6 3 4 9 14 16 15 18 12 16 30 27 21 21 22 20 13 17 23 25 24 25 24 24 24 23 23 18 13 15 22 21 15 11 9 10 10 11 12 15 16 17 21 26 24 26 29 32 36 37 34
8 9 4 4 5 9 7 10 8 7 7 7 7 22 24 19 10 5 9 16 18 21 21 24 25 23 22 22 21 26 29 24 21 22 21 17 12 14 9 8 10 12 12 12 15 19 24 25 25 28 30 32 33 32
5 6 5 2 6 7 11 11 7 7 8 6 11 14 15 10 10 3 5 12 19 17 22 20 24 29 34 32 34 31 19 11 12 11 9 7 6 6 4 6 11 12 10 11 14 16 19 21 23 24 26 29 30 29
Wind_Direction_500mb
286 289 289 291 290 290 300 293 286 278 277 282 289 296 288 281 268 284 283 261 246 260 278 289 300 289 283 279 279 338 313 19 281 286 293 338 309 335 292 337 307 298 239 214 231 253 285 11 344 349 314 312 324 325
281 282 281 284 285 284 295 299 298 289 279 278 282 289 289 276 267 274 283 296 256 251 261 278 289 290 260 251 286 280 302 285 346 322 355 328 319 308 317 298 337 353 74 248 255 301 326 356 340 334 344 331 335 329
279 275 277 278 279 282 285 287 289 295 284 282 282 283 291 269 262 275 266 286 269 278 300 272 271 306 262 233 223 250 13 357 341 336 322 300 281 320 290 306 333 321 338 313 328 326 341 340 352 337 331 324 318 314
277 273 269 271 271 275 276 276 283 288 284 278 282 282 282 258 248 272 252 285 274 262 276 291 294 272 252 220 218 226 264 309 320 301 272 273 278 289 292 298 299 339 347 336 299 310 334 332 326 318 312 312 318 312
280 272 264 263 272 267 266 270 279 286 284 272 274 281 270 254 225 269 246 266 280 225 290 292 290 268 241 210 213 225 238 260 300 281 258 267 279 297 288 276 323 9 353 310 278 314 297 291 307 309 311 326 321 317
286 278 265 260 263 258 273 278 282 283 278 263 268 266 251 257 228 237 269 264 255 206 278 289 295 270 195 214 216 216 217 221 217 286 263 250 264 307 301 290 115 353 342 338 298 298 294 298 305 318 321 323 320 322
283 279 260 262 254 259 270 275 276 276 268 243 258 249 223 226 233 220 220 183 182 188 250 279 276 266 200 193 210 204 190 184 216 240 249 267 283 248 264 269 320 345 332 318 311 320 313 306 306 318 329 324 322 328
285 274 254 257 256 264 267 267 271 272 246 238 231 215 226 227 246 238 249 268 228 197 247 269 278 251 200 204 205 191 182 193 199 233 252 250 159 172 252 275 335 333 326 323 324 316 302 305 324 335 327 330 329 325
277 265 258 262 266 269 270 268 265 256 224 212 194 193 190 201 215 241 263 246 195 214 249 244 250 288 188 218 198 188 180 187 190 226 239 165 153 223 351 339 329 329 323 310 316 316 320 333 336 334 336 341 338 335
270 268 256 260 263 267 266 261 257 218 197 176 172 169 196 205 193 166 133 157 191 237 239 249 232 258 274 232 204 232 178 195 196 214 188 215 226 124 7 342 327 325 323 324 318 316 320 337 329 341 347 352 341 333
267 263 263 266 261 262 261 257 212 185 174 170 169 178 187 160 156 196 176 181 193 230 220 234 225 240 272 275 294 31 302 194 250 151 207 194 135 2 350 348 339 331 327 322 315 311 330 330 331 341 345 350 349 342
259 264 264 264 263 252 254 221 199 189 176 175 161 151 148 180 204 223 199 191 200 245 188 226 214 216 183 267 269 232 248 261 252 176 167 192 94 10 356 348 346 344 342 334 332 330 333 335 342 348 348 342 341 351
257 261 263 259 261 249 235 210 193 195 173 152 165 155 173 179 212 219 200 198 214 214 189 189 197 192 183 212 213 231 228 236 144 194 151 83 49 12 0 352 350 352 350 344 340 339 338 337 337 348 350 348 339 348
263 253 253 260 253 241 206 197 192 185 152 151 165 183 223 185 232 206 219 213 266 217 168 199 158 193 193 194 227 261 277 272 266 173 85 70 24 7 1 360 0 358 355 349 345 336 342 342 341 349 354 352 347 345
253 251 250 248 235 203 197 193 189 176 147 171 194 220 213 236 232 229 224 261 239 188 182 160 182 176 180 297 284 308 262 287 12 57 64 52 15 356 354 355 2 4 355 349 344 341 339 341 343 346 353 355 355 350
240 242 239 233 197 191 184 179 177 164 166 194 221 248 241 238 239 240 238 226 192 187 188 181 208 140 155 266 288 265 302 307 75 69 40 340 12 348 344 349 355 357 354 355 349 342 339 341 344 347 348 352 359 356
222 213 213 186 184 180 182 172 163 172 203 220 232 229 245 249 226 236 224 189 182 199 204 201 188 145 102 151 242 19 316 67 115 87 12 0 346 338 338 341 349 352 352 352 356 357 352 345 351 350 352 356 357 357
210 209 188 182 178 172 165 153 152 189 229 229 240 223 216 240 255 235 221 173 183 218 221 256 126 182 180 214 160 167 220 168 125 146 201 352 348 345 345 340 341 347 351 356 353 355 1 355 354 351 351 355 358 1
210 190 186 184 179 144 135 172 177 227 223 234 221 240 218 231 247 252 189 178 187 322 118 184 247 275 183 125 132 172 199 171 117 104 168 103 5 349 359 350 351 357 357 356 351 4 5 3 356 354 2 1 360 8
192 183 182 179 163 116 125 150 181 251 233 219 223 222 221 214 228 216 190 171 180 201 208 235 301 67 107 128 168 142 108 133 141 115 91 77 27 23 16 9 3 9 14 6 359 8 15 16 13 7 17 6 2 11
160 161 170 169 147 114 148 163 184 224 215 216 212 213 211 205 219 219 189 186 206 218 186 159 175 100 124 143 133 127 121 90 105 117 62 47 31 31 25 18 14 15 18 12 10 4 7 12 11 8 7 19 12 14
148 166 152 156 106 137 173 188 214 210 228 248 188 194 204 209 203 204 189 184 216 209 154 143 155 160 151 143 141 105 121 119 129 105 99 63 35 39 35 26 21 19 22 20 12 8 5 2 5 10 9 17 24 14
154 157 137 117 134 187 247 183 211 202 219 209 179 210 213 195 198 184 181 189 215 141 167 171 162 163 154 146 145 135 132 133 119 100 80 82 68 54 49 40 29 23 18 18 17 15 11 3 7 8 16 18 25 23
143 113 152 179 191 203 178 191 204 214 210 194 192 212 183 147 163 198 217 180 178 172 170 166 164 154 155 160 161 153 157 147 118 104 83 80 74 59 53 48 35 28 20 15 18 17 16 16 9 8 13 20 25 31
120 168 168 198 208 188 201 182 200 219 214 191 201 189 132 150 164 220 220 156 161 171 167 171 177 171 169 174 152 151 165 158 134 112 84 78 70 70 58 53 42 32 21 16 16 17 19 19 17 15 12 14 20 29
164 180 193 201 186 194 191 184 200 206 200 189 204 152 153 158 197 207 221 158 173 175 170 180 183 179 174 165 151 157 155 136 138 121 93 79 73 66 55 43 30 24 25 20 16 14 19 20 20 19 17 13 18 27
181 206 198 203 187 205 205 237 199 200 207 199 176 174 165 177 204 82 125 134 166 171 176 181 180 183 162 147 138 142 146 137 124 131 116 97 84 73 66 59 40 31 29 22 24 16 18 18 20 22 20 14 13 23
266 203 201 179 199 215 230 201 200 201 219 218 161 182 189 165 91 133 123 154 169 166 167 170 172 165 147 140 148 150 147 141 127 122 115 98 81 73 67 52 37 39 35 16 27 20 22 21 19 18 20 18 13 15
223 206 187 196 205 206 220 224 236 215 215 216 167 98 75 82 124 147 137 152 158 159 158 153 138 136 136 145 152 153 152 146 147 163 168 133 108 54 52 50 45 34 37 26 13 11 31 24 21 23 18 15 15 13
193 183 212 204 204 211 188 311 92 53 79 99 108 106 95 99 101 113 138 150 157 160 161 153 151 157 156 154 146 138 132 128 129 156 173 137 124 93 64 49 40 29 27 27 25 15 20 24 18 17 15 14 14 20
156 187 231 224 218 173 143 128 114 87 64 68 131 139 130 114 85 79 91 110 150 153 150 151 161 161 159 157 156 150 130 115 121 112 113 121 112 91 73 54 38 30 25 22 19 13 17 18 14 11 5 1 0 6
199 203 234 227 180 183 169 162 122 107 103 111 102 133 142 136 104 67 71 118 149 160 162 165 160 157 154 146 130 128 138 136 136 134 123 124 113 92 70 65 44 35 31 26 20 11 13 11 6 4 358 352 352 353
171 192 195 217 199 203 188 163 127 116 104 88 47 53 65 73 75 37 119 108 114 125 160 156 146 141 143 146 147 146 149 148 125 122 123 123 125 148 99 103 75 50 42 33 29 21 10 6 359 356 353 350 351 352
Wind_Speed_850mb
47 47 48 44 42 36 36 40 42 48 52 53 51 44 32 26 33 39 26 20 25 14 47 51 26 31 33 37 19 25 17 0 12 12 7 7 10 9 14 20 13 10 4 8 9 7 7 28 15 23 23 50 50 59
56 52 50 47 42 37 38 37 35 36 40 49 54 47 33 22 28 35 31 22 19 25 34 52 58 29 42 41 29 16 20 18 10 7 8 8 8 9 22 11 13 6 2 4 9 12 31 43 42 42 53 54 63 73
62 60 54 48 46 44 45 38 35 34 36 39 47 48 34 20 22 34 38 27 25 26 44 31 22 23 15 24 24 12 3 8 7 13 12 6 8 6 8 12 16 19 27 13 21 13 34 60 34 53 58 63 66 66
65 62 58 53 49 45 40 40 39 39 38 36 39 44 28 19 22 29 43 33 21 13 12 13 11 16 18 19 21 23 17 13 14 17 12 7 6 13 10 16 20 17 17 19 28 26 64 23 54 60 67 68 68 78
53 54 57 53 49 46 45 38 37 41 41 33 34 35 22 15 20 27 40 37 28 16 9 22 40 33 38 25 20 17 15 10 11 8 8 10 14 13 15 18 6 8 7 4 8 43 28 45 65 78 74 66 77 84
51 50 51 47 47 43 40 41 41 41 38 28 32 25 15 15 23 29 13 12 21 33 9 8 15 15 30 32 22 19 19 14 11 6 10 14 22 8 7 7 5 9 15 30 22 46 55 65 64 59 67 78 65 79
50 48 47 42 44 36 35 47 40 36 29 22 29 23 17 21 27 32 9 8 9 24 8 11 9 6 30 30 24 18 19 9 10 7 14 25 20 3 2 6 12 34 38 42 33 34 34 44 61 64 72 73 85 72
49 42 40 42 38 38 40 38 36 34 25 28 24 20 19 25 30 39 40 32 22 21 9 6 9 12 32 31 26 22 18 15 15 9 9 14 8 2 6 12 26 36 42 30 33 44 60 66 55 68 75 84 76 66
43 38 41 33 38 38 35 39 38 33 28 30 22 22 17 23 18 27 28 19 34 15 7 7 5 6 24 35 18 26 19 8 10 7 7 7 3 7 7 22 24 32 28 42 52 52 52 62 53 73 63 79 74 77
38 35 35 37 36 35 35 34 32 31 36 34 32 14 9 11 18 18 14 16 18 10 12 9 19 13 22 9 17 9 14 9 7 12 6 5 4 11 13 17 22 30 33 36 43 51 62 56 59 50 56 76 76 73
30 30 32 34 35 35 32 30 30 45 45 38 17 11 16 11 25 8 10 11 15 8 14 17 38 26 12 10 10 9 4 5 5 7 8 7 3 4 16 19 22 27 32 32 37 51 51 57 64 50 57 81 84 79
36 35 37 34 30 27 29 32 46 62 43 38 19 18 18 11 9 7 8 9 10 8 17 20 25 34 6 5 5 4 6 5 5 13 6 3 4 12 19 24 27 33 36 35 37 49 50 53 63 59 60 67 79 89
34 34 32 29 28 29 36 42 68 55 46 33 9 10 10 11 10 11 14 8 7 14 15 19 9 14 6 9 7 7 9 9 14 9 5 6 10 16 22 27 32 37 37 35 39 44 52 51 61 55 64 67 69 95
37 37 31 31 30 31 40 62 66 53 36 10 13 10 10 10 11 11 14 9 20 12 22 26 14 11 10 8 5 8 5 6 5 5 6 10 13 18 23 27 38 44 41 41 42 50 48 51 61 57 58 71 63 84
37 35 34 30 32 39 56 62 60 53 11 11 10 9 15 18 15 18 23 17 19 14 18 17 12 9 4 3 5 7 4 4 6 6 4 11 11 17 21 29 38 41 41 42 45 47 48 50 57 64 62 68 65 81
34 28 32 26 39 56 64 71 48 34 9 7 10 8 13 10 21 23 19 34 17 14 14 7 4 5 3 2 2 4 5 2 5 5 5 6 11 16 20 23 27 29 33 44 45 44 44 46 58 60 60 65 68 80
27 32 28 39 61 76 76 64 29 10 11 8 12 24 16 15 15 18 20 16 19 18 9 4 8 6 5 2 3 1 3 3 3 3 2 6 11 16 21 22 26 29 32 37 51 49 41 42 50 55 69 74 65 80
39 36 42 69 82 83 60 20 11 14 12 18 10 14 25 21 18 23 18 17 16 17 12 2 7 8 8 5 6 6 9 9 10 4 1 5 9 14 18 23 24 25 28 32 44 45 49 47 48 56 57 64 62 77
48 46 64 79 85 41 13 18 11 8 21 8 24 16 24 25 22 19 16 17 9 6 1 4 5 3 3 10 14 13 14 12 10 5 5 4 8 10 15 20 21 23 24 29 36 43 47 44 41 44 48 63 57 67
45 64 83 85 65 11 9 8 15 7 7 13 18 26 24 27 21 12 19 15 14 9 6 4 3 6 8 13 17 8 11 7 5 4 8 6 10 12 16 20 23 23 24 27 25 39 51 52 55 55 46 55 58 63
97 91 88 71 32 9 8 11 12 9 7 10 17 24 17 25 28 25 16 16 16 12 6 8 4 9 12 16 11 10 6 7 9 6 2 9 12 13 16 20 21 24 27 30 32 37 47 55 58 60 49 46 53 50
67 80 59 43 5 6 5 12 7 6 7 8 24 25 15 22 25 27 20 14 15 10 5 8 13 19 19 16 13 8 12 10 10 7 4 3 12 14 17 20 23 25 28 31 33 36 40 46 53 56 50 45 47 45
71 56 25 6 5 7 6 15 7 7 6 6 14 8 10 18 18 20 11 16 7 8 10 15 19 19 19 17 15 14 11 15 11 11 9 12 13 14 15 19 22 25 28 31 32 34 37 45 47 53 52 45 43 46
48 12 9 13 12 8 11 11 10 10 10 9 10 7 12 10 18 13 8 18 20 20 20 22 26 23 20 18 18 15 14 12 15 13 10 10 12 13 14 16 20 24 27 27 31 34 36 38 44 46 53 49 44 46
10 9 8 6 11 10 9 8 7 7 6 10 11 6 7 12 7 7 13 14 26 29 30 26 27 23 22 22 23 17 15 13 15 14 12 10 9 10 11 14 18 24 27 28 33 36 36 37 40 42 45 52 42 40
5 10 12 15 9 9 9 8 12 13 8 11 11 8 10 7 9 6 10 26 30 31 32 29 29 26 24 25 22 20 15 13 16 15 12 11 12 11 11 12 13 19 25 26 29 34 35 37 38 41 42 42 44 31
6 8 9 6 7 5 5 6 7 7 9 11 8 13 9 9 10 5 8 17 24 26 26 27 25 24 25 26 25 21 18 15 14 18 14 13 14 16 15 14 16 15 19 25 27 32 32 34 36 38 39 39 40 37
4 5 7 14 8 12 5 7 8 11 6 6 11 10 6 0 5 5 7 8 12 26 26 25 21 21 28 25 22 21 19 17 20 19 18 16 16 16 15 13 16 28 22 25 30 31 30 30 33 34 36 35 36 39
6 6 7 10 9 10 8 5 4 4 3 5 7 5 5 6 5 10 12 17 20 26 28 27 24 23 23 23 21 19 16 16 16 17 16 16 11 11 12 12 14 15 17 20 28 34 31 35 32 33 33 31 30 28
8 11 6 8 5 6 2 2 6 8 11 16 21 23 24 19 13 9 15 18 21 23 25 28 25 24 25 25 25 21 16 13 12 11 16 12 9 7 9 11 13 14 16 18 18 21 26 24 26 27 32 32 36 34
7 10 5 6 3 4 9 14 16 15 18 12 16 30 27 21 21 22 20 13 17 23 25 24 25 24 24 24 23 23 18 13 15 22 21 15 11 9 10 10 11 12 15 16 17 21 26 24 26 29 32 36 37 34
8 9 4 4 5 9 7 10 8 7 7 7 7 22 24 19 10 5 9 16 18 21 21 24 25 23 22 22 21 26 29 24 21 22 21 17 12 14 9 8 10 12 12 12 15 19 24 25 25 28 30 32 33 32
5 6 5 2 6 7 11 11 7 7 8 6 11 14 15 10 10 3 5 12 19 17 22 20 24 29 34 32 34 31 19 11 12 11 9 7 6 6 4 6 11 12 10 11 14 16 19 21 23 24 26 29 30 29
Wind_Direction_850mb
286 289 289 291 290 290 300 293 286 278 277 282 289 296 288 281 268 284 283 261 246 260 278 289 300 289 283 279 279 338 313 19 281 286 293 338 309 335 292 337 307 298 239 214 231 253 285 11 344 349 314 312 324 325
281 282 281 284 285 284 295 299 298 289 279 278 282 289 289 276 267 274 283 296 256 251 261 278 289 290 260 251 286 280 302 285 346 322 355 328 319 308 317 298 337 353 74 248 255 301 326 356 340 334 344 331 335 329
279 275 277 278 279 282 285 287 289 295 284 282 282 283 291 269 262 275 266 286 269 278 300 272 271 306 262 233 223 250 13 357 341 336 322 300 281 320 290 306 333 321 338 313 328 326 341 340 352 337 331 324 318 314
277 273 269 271 271 275 276 276 283 288 284 278 282 282 282 258 248 272 252 285 274 262 276 291 294 272 252 220 218 226 264 309 320 301 272 273 278 289 292 298 299 339 347 336 299 310 334 332 326 318 312 312 318 312
280 272 264 263 272 267 266 270 279 286 284 272 274 281 270 254 225 269 246 266 280 225 290 292 290 268 241 210 213 225 238 260 300 281 258 267 279 297 288 276 323 9 353 310 278 314 297 291 307 309 311 326 321 317
286 278 265 260 263 258 273 278 282 283 278 263 268 266 251 257 228 237 269 264 255 206 278 289 295 270 195 214 216 216 217 221 217 286 263 250 264 307 301 290 115 353 342 338 298 298 294 298 305 318 321 323 320 322
283 279 260 262 254 259 270 275 276 276 268 243 258 249 223 226 233 220 220 183 182 188 250 279 276 266 200 193 210 204 190 184 216 240 249 267 283 248 264 269 320 345 332 318 311 320 313 306 306 318 329 324 322 328
285 274 254 257 256 264 267 267 271 272 246 238 231 215 226 227 246 238 249 268 228 197 247 269 278 251 200 204 205 191 182 193 199 233 252 250 159 172 252 275 335 333 326 323 324 316 302 305 324 335 327 330 329 325
277 265 258 262 266 269 270 268 265 256 224 212 194 193 190 201 215 241 263 246 195 214 249 244 250 288 188 218 198 188 180 187 190 226 239 165 153 223 351 339 329 329 323 310 316 316 320 333 336 334 336 341 338 335
270 268 256 260 263 267 266 261 257 218 197 176 172 169 196 205 193 166 133 157 191 237 239 249 232 258 274 232 204 232 178 195 196 214 188 215 226 124 7 342 327 325 323 324 318 316 320 337 329 341 347 352 341 333
267 263 263 266 261 262 261 257 212 185 174 170 169 178 187 160 156 196 176 181 193 230 220 234 225 240 272 275 294 31 302 194 250 151 207 194 135 2 350 348 339 331 327 322 315 311 330 330 331 341 345 350 349 342
259 264 264 264 263 252 254 221 199 189 176 175 161 151 148 180 204 223 199 191 200 245 188 226 214 216 183 267 269 232 248 261 252 176 167 192 94 10 356 348 346 344 342 334 332 330 333 335 342 348 348 342 341 351
257 261 263 259 261 249 235 210 193 195 173 152 165 155 173 179 212 219 200 198 214 214 189 189 197 192 183 212 213 231 228 236 144 194 151 83 49 12 0 352 350 352 350 344 340 339 338 337 337 348 350 348 339 348
263 253 253 260 253 241 206 197 192 185 152 151 165 183 223 185 232 206 219 213 266 217 168 199 158 193 193 194 227 261 277 272 266 173 85 70 24 7 1 360 0 358 355 349 345 336 342 342 341 349 354 352 347 345
253 251 250 248 235 203 197 193 189 176 147 171 194 220 213 236 232 229 224 261 239 188 182 160 182 176 180 297 284 308 262 287 12 57 64 52 15 356 354 355 2 4 355 349 344 341 339 341 343 346 353 355 355 350
240 242 239 233 197 191 184 179 177 164 166 194 221 248 241 238 239 240 238 226 192 187 188 181 208 140 155 266 288 265 302 307 75 69 40 340 12 348 344 349 355 357 354 355 349 342 339 341 344 347 348 352 359 356
222 213 213 186 184 180 182 172 163 172 203 220 232 229 245 249 226 236 224 189 182 199 204 201 188 145 102 151 242 19 316 67 115 87 12 0 346 338 338 341 349 352 352 352 356 357 352 345 351 350 352 356 357 357
210 209 188 182 178 172 165 153 152 189 229 229 240 223 216 240 255 235 221 173 183 218 221 256 126 182 180 214 160 167 220 168 125 146 201 352 348 345 345 340 341 347 351 356 353 355 1 355 354 351 351 355 358 1
210 190 186 184 179 144 135 172 177 227 223 234 221 240 218 231 247 252 189 178 187 322 118 184 247 275 183 125 132 172 199 171 117 104 168 103 5 349 359 350 351 357 357 356 351 4 5 3 356 354 2 1 360 8
192 183 182 179 163 116 125 150 181 251 233 219 223 222 221 214 228 216 190 171 180 201 208 235 301 67 107 128 168 142 108 133 141 115 91 77 27 23 16 9 3 9 14 6 359 8 15 16 13 7 17 6 2 11
160 161 170 169 147 114 148 163 184 224 215 216 212 213 211 205 219 219 189 186 206 218 186 159 175 100 124 143 133 127 121 90 105 117 62 47 31 31 25 18 14 15 18 12 10 4 7 12 11 8 7 19 12 14
148 166 152 156 106 137 173 188 214 210 228 248 188 194 204 209 203 204 189 184 216 209 154 143 155 160 151 143 141 105 121 119 129 105 99 63 35 39 35 26 21 19 22 20 12 8 5 2 5 10 9 17 24 14
154 157 137 117 134 187 247 183 211 202 219 209 179 210 213 195 198 184 181 189 215 141 167 171 162 163 154 146 145 135 132 133 119 100 80 82 68 54 49 40 29 23 18 18 17 15 11 3 7 8 16 18 25 23
143 113 152 179 191 203 178 191 204 214 210 194 192 212 183 147 163 198 217 180 178 172 170 166 164 154 155 160 161 153 157 147 118 104 83 80 74 59 53 48 35 28 20 15 18 17 16 16 9 8 13 20 25 31
120 168 168 198 208 188 201 182 200 219 214 191 201 189 132 150 164 220 220 156 161 171 167 171 177 171 169 174 152 151 165 158 134 112 84 78 70 70 58 53 42 32 21 16 16 17 19 19 17 15 12 14 20 29
164 180 193 201 186 194 191 184 200 206 200 189 204 152 153 158 197 207 221 158 173 175 170 180 183 179 174 165 151 157 155 136 138 121 93 79 73 66 55 43 30 24 25 20 16 14 19 20 20 19 17 13 18 27
181 206 198 203 187 205 205 237 199 200 207 199 176 174 165 177 204 82 125 134 166 171 176 181 180 183 162 147 138 142 146 137 124 131 116 97 84 73 66 59 40 31 29 22 24 16 18 18 20 22 20 14 13 23
266 203 201 179 199 215 230 201 200 201 219 218 161 182 189 165 91 133 123 154 169 166 167 170 172 165 147 140 148 150 147 141 127 122 115 98 81 73 67 52 37 39 35 16 27 20 22 21 19 18 20 18 13 15
223 206 187 196 205 206 220 224 236 215 215 216 167 98 75 82 124 147 137 152 158 159 158 153 138 136 136 145 152 153 152 146 147 163 168 133 108 54 52 50 45 34 37 26 13 11 31 24 21 23 18 15 15 13
193 183 212 204 204 211 188 311 92 53 79 99 108 106 95 99 101 113 138 150 157 160 161 153 151 157 156 154 146 138 132 128 129 156 173 137 124 93 64 49 40 29 27 27 25 15 20 24 18 17 15 14 14 20
156 187 231 224 218 173 143 128 114 87 64 68 131 139 130 114 85 79 91 110 150 153 150 151 161 161 159 157 156 150 130 115 121 112 113 121 112 91 73 54 38 30 25 22 19 13 17 18 14 11 5 1 0 6
199 203 234 227 180 183 169 162 122 107 103 111 102 133 142 136 104 67 71 118 149 160 162 165 160 157 154 146 130 128 138 136 136 134 123 124 113 92 70 65 44 35 31 26 20 11 13 11 6 4 358 352 352 353
171 192 195 217 199 203 188 163 127 116 104 88 47 53 65 73 75 37 119 108 114 125 160 156 146 141 143 146 147 146 149 148 125 122 123 123 125 148 99 103 75 50 42 33 29 21 10 6 359 356 353 350 351 352